Showing default

UMBRA-07, 58297

Orbit data source: Space-Track

UMBRA-07, 58297 is a payload satellite owned by Umbra Labs (US) in SSO that was launched on Sat, 11 Nov 2023 UTC via an FALCON 9 launch vehicle from the Air Force Western Test Range (AFWTR). Payload-class satellites include a variety of spacecraft equipped with specific instruments for various scientific and technological missions. These include communications satellites like Starlink; space stations such as the ISS; scientific satellites like the Hubble; Earth observation satellites from companies like Planet Labs, Umbra, and HawkEye 360; GPS; miniature CubeSats for education and research; and military/defense satellites.

Loading next visibility...
Identifier
58297, 2023-174AT
Orbit
SSO
Country
Flag of USUS
Related business
Manufacturer
Umbra Labs
Mission
Operational Commercial Radar Imaging
Bus & Motor
ESPASAT?, Unknown motor
Mass
84 kg wet, 79 kg dry
Launch date (UTC)
2023-11-11 (2 years ago)
Launch vehicle
FALCON 9
Launch site
Air Force Western Test Range (AFWTR)
Object type
Payload
Rocket body
Debris
Shape & HBR
Box + 2 Pan + 1 Dish, 1.9 m
Radar Cross Section
0.929 m², Large (>1 m²)

Expand to show TLE details & history
Last TLE update: 17 hours ago

TLE from 17 hours ago
0 UMBRA-07
1 58297U 23174AT  25258.43196721  .00016285  00000-0  12390-2 0  9992
2 58297  97.4205 320.2642 0000825 300.9578  59.1567 15.02183347102062
Epoch: 2025-09-15T10:22Z
TLE epoch observation values (Epoch: 2025-09-15T10:22:01.966Z)
Latitude
0.00002°
Longitude
170.1193°
Altitude
562.937 km
Speed
7.58 km/s
True Right ascension
21h 21m 03s
True Declination
0° 00' 00"
Sunlit
Object was in full shadow at epoch
Visualization orbit readout
Latitude
Unknown
Longitude
Unknown
Altitude
Unknown
Speed
Unknown
Apparent Right ascension
Unknown
Apparent Declination
Unknown
Sunlit
N/A
Visualization observer readout
Local Sidereal Time
20:04:07
Azimuth
Unknown
Elevation
Unknown
Doppler factor
Unknown
Orbital elements
Apogee altitude
557.728 km
Perigee altitude
556.583 km
Semi-major axis
6,935.292 km
Eccentricity
0.00008
Inclination
97.4205°
RAAN
320.2642°
Arg. of periapsis
300.9578°
True anomaly
59.16482°
Mean anomaly
59.1567°
Eccentric anomaly
59.16076°
Mean motion
3.75791 °/min
Orbital period
95.8 mins
BSTAR
0.001239
Loading maneuver chart data...
Computing Atmospheric mass density...
Loading historical data...
Loading historical data...
Loading historical data...
Loading historical data...
Loading historical data...
Loading historical data...
Loading historical data...

Documentation

Showing up to 5 results
|